EW4652 Weather Reports


Display with metric or nautical units.
time (UTC)temp
F
wind
direction
speed
MPH
gust
MPH
rain 1hr
in
rain 24hr
in
rain mn
in
humidity
%
barometer
mb
20260906173028 74 118 4.0 9.0 0.00 0.00 0.00 83 1019.9
20260906171524 74 124 5.0 10.0 0.00 0.00 0.00 84 1019.8
20260906170024 74 127 7.0 9.0 0.00 0.00 0.00 82 1020.0
20260906164521 74 142 6.0 9.0 0.00 0.00 0.00 84 1020.1
20260906163018 73 134 5.0 9.0 0.00 0.00 0.00 85 1020.0
20260906161523 73 107 4.0 10.0 0.00 0.00 0.00 86 1019.7
20260906160020 72 136 7.0 11.0 0.00 0.00 0.00 86 1019.6
20260906154509 71 191 6.0 9.0 0.00 0.00 0.00 87 1019.7
20260906153004 70 132 8.0 13.0 0.00 0.00 0.00 87 1019.8
20260906151502 70 168 6.0 11.0 0.00 0.00 0.00 89 1019.9
20260906150001 70 143 7.0 11.0 0.00 0.00 0.00 89 1020.1
20260906144601 70 146 5.0 11.0 0.00 0.00 0.00 89 1020.2
20260906143057 69 167 7.0 11.0 0.00 0.00 0.00 90 1019.9
20260906141553 68 131 7.0 11.0 0.00 0.00 0.00 91 1020.1
20260906140058 68 153 6.0 11.0 0.00 0.00 0.00 92 1020.3
20260906134548 68 146 6.0 11.0 0.00 0.00 0.00 93 1020.0
20260906133109 68 169 6.0 9.0 0.00 0.00 0.00 93 1019.7
20260906131543 68 115 5.0 10.0 0.00 0.00 0.00 94 1019.5
20260906130040 67 116 4.0 10.0 0.00 0.00 0.00 94 1019.3
20260906124539 67 116 4.0 9.0 0.00 0.00 0.00 95 1019.3
20260906123037 67 105 5.0 11.0 0.00 0.00 0.00 95 1019.2
20260906121536 67 126 5.0 9.0 0.00 0.00 0.00 95 1019.0
20260906120034 68 117 6.0 10.0 0.00 0.00 0.00 95 1018.8
20260906114542 68 134 4.0 9.0 0.00 0.00 0.00 95 1018.8
20260906113028 68 131 5.0 10.0 0.00 0.00 0.00 95 1018.9
20260906111527 68 166 4.0 10.0 0.00 0.00 0.00 95 1018.8
20260906110024 68 147 6.0 11.0 0.00 0.00 0.00 95 1018.5
20260906104525 68 166 7.0 12.0 0.00 0.01 0.00 95 1018.5
20260906103020 68 143 3.0 9.0 0.00 0.01 0.00 95 1018.4
20260906101523 68 160 4.0 11.0 0.00 0.01 0.00 95 1018.3
20260906100024 68 130 6.0 11.0 0.00 0.01 0.00 95 1018.1
20260906094516 68 150 4.0 8.0 0.00 0.01 0.00 95 1018.1
20260906093015 68 138 3.0 7.0 0.00 0.01 0.00 95 1017.7
20260906091520 68 127 6.0 11.0 0.00 0.01 0.00 95 1017.4
20260906090015 68 110 6.0 9.0 0.00 0.01 0.00 95 1017.4
20260906084511 68 113 6.0 9.0 0.00 0.01 0.00 95 1017.3
20260906083007 68 115 5.0 8.0 0.00 0.01 0.00 94 1017.3
20260906081506 68 87 3.0 7.0 0.00 0.01 0.00 94 1017.5
20260906080005 68 86 4.0 8.0 0.00 0.01 0.00 94 1017.4
20260906074502 69 96 4.0 7.0 0.00 0.01 0.00 94 1017.4
20260906073001 69 109 3.0 6.0 0.00 0.01 0.00 93 1017.6
20260906071600 69 103 3.0 5.0 0.00 0.01 0.00 93 1017.8
20260906070059 69 125 4.0 8.0 0.00 0.01 0.00 93 1017.7
20260906064555 70 104 3.0 7.0 0.00 0.01 0.00 92 1017.9
20260906063054 70 96 5.0 8.0 0.00 0.01 0.00 93 1018.0
20260906061557 70 113 3.0 6.0 0.00 0.01 0.00 92 1018.0
20260906060052 70 80 2.0 4.0 0.00 0.01 0.00 92 1018.1
20260906054602 70 85 3.0 8.0 0.00 0.01 0.00 92 1018.0
20260906053057 71 96 2.0 7.0 0.00 0.01 0.00 92 1018.0
20260906051606 71 91 3.0 5.0 0.00 0.01 0.00 92 1017.9
20260906050046 71 61 2.0 6.0 0.00 0.01 0.00 92 1017.9
20260906044552 71 80 2.0 4.0 0.00 0.01 0.01 92 1017.8
20260906043046 71 88 2.0 6.0 0.00 0.01 0.01 92 1018.0
20260906041543 71 55 3.0 7.0 0.00 0.01 0.01 92 1018.1
20260906040121 71 89 2.0 6.0 0.00 0.01 0.01 93 1017.9
20260906034539 71 75 2.0 3.0 0.00 0.01 0.01 93 1017.9
20260906033051 72 96 2.0 4.0 0.00 0.01 0.01 93 1017.5
20260906031537 72 92 2.0 3.0 0.00 0.01 0.01 93 1017.5
20260906030036 72 92 1.0 2.0 0.00 0.01 0.01 92 1017.5
20260906024537 73 93 1.0 4.0 0.00 0.01 0.01 92 1017.4
20260906023035 73 92 3.0 7.0 0.00 0.01 0.01 92 1017.3
20260906021535 73 82 2.0 6.0 0.00 0.01 0.01 92 1017.1
20260906020035 73 102 2.0 4.0 0.00 0.01 0.01 92 1016.9
20260906014534 73 76 1.0 3.0 0.00 0.01 0.01 92 1016.7
20260906013034 73 77 1.0 3.0 0.00 0.01 0.01 91 1016.4
20260906011533 73 78 1.0 3.0 0.00 0.01 0.01 92 1016.2
20260906010032 73 79 1.0 2.0 0.00 0.01 0.01 91 1016.1
20260906004530 74 79 1.0 2.0 0.00 0.01 0.01 90 1015.8
20260906003030 75 79 0.0 4.0 0.00 0.01 0.01 89 1015.8
20260906001532 75 67 2.0 3.0 0.00 0.01 0.01 88 1015.5
20260906000029 75 67 1.0 3.0 0.00 0.01 0.01 88 1015.5
20260905234528 76 62 0.0 3.0 0.00 0.01 0.01 88 1015.5
20260905233028 76 69 1.0 4.0 0.00 0.01 0.01 87 1015.4
20260905231527 76 73 2.0 4.0 0.00 0.01 0.01 86 1015.4
20260905230027 76 96 4.0 9.0 0.00 0.01 0.01 85 1015.2
20260905224603 77 96 7.0 10.0 0.00 0.01 0.01 85 1015.0
20260905223026 77 99 6.0 9.0 0.00 0.01 0.01 85 1015.0
20260905221625 77 107 5.0 9.0 0.00 0.01 0.01 86 1015.0
20260905220025 77 78 4.0 7.0 0.00 0.01 0.01 85 1015.0
20260905214524 77 96 4.0 10.0 0.00 0.01 0.01 85 1015.0
20260905213022 76 86 5.0 9.0 0.00 0.01 0.01 86 1015.1
20260905211538 76 81 2.0 9.0 0.00 0.01 0.01 87 1015.3
20260905210034 76 83 5.0 9.0 0.00 0.01 0.01 87 1015.1
20260905204520 76 105 8.0 14.0 0.00 0.01 0.01 86 1015.2
20260905203018 76 67 5.0 11.0 0.00 0.01 0.01 87 1015.4
20260905201522 76 34 5.0 11.0 0.00 0.01 0.01 87 1015.5
20260905200022 77 32 7.0 13.0 0.00 0.01 0.01 87 1015.5
20260905194518 76 94 8.0 14.0 0.00 0.01 0.01 87 1015.6
20260905193014 76 51 5.0 9.0 0.00 0.01 0.01 88 1016.0
20260905191516 76 103 3.0 6.0 0.00 0.01 0.01 87 1016.5
20260905190010 75 15 2.0 5.0 0.00 0.01 0.01 88 1017.0
20260905184521 74 28 3.0 9.0 0.00 0.01 0.01 90 1017.1
20260905183006 74 59 5.0 11.0 0.00 0.01 0.01 91 1016.9
20260905181505 73 74 3.0 8.0 0.00 0.01 0.01 92 1017.2
20260905180006 73 62 2.0 8.0 0.00 0.01 0.01 91 1017.4
20260905174502 73 39 5.0 9.0 0.00 0.01 0.01 91 1017.3